[[{"header":{"parameterUnit":"m.s-1","parameterCategory":1,"la1":30.2991,"la2":30.254,"lo1":-89.0895,"lo2":-89.0444,"dy":0.0017,"dx":0.0017,"nx":28,"ny":28,"refTime":"2026-01-08T03:00:00:Z","depth":0,"parameterNumber":2,"parameterNumberName":"U-component_of_WINDS"},"data":[0,0,0,0,0,0,0,0,0,0,0,0,0,0,0,0,0,0,0,0,0,0,0,0,0,0,0,0,0,0,0,0,0,0,0,0,0,0,0,0,0,0,0,0,0,0,0,0,0,0,0,0,0,0,0,0,0,0,-2.766,-2.766,0,-2.7714,-2.7715,-2.7715,-2.7711,-2.771,-2.7709,-2.7708,-2.7765,-2.7767,-2.777,0,0,0,0,0,0,0,0,0,0,0,0,0,-2.7552,-2.7554,-2.7659,-2.766,-2.7661,-2.7714,-2.7715,-2.7716,-2.7711,-2.771,-2.7709,-2.7708,-2.7764,-2.7767,-2.777,0,0,0,0,0,0,0,0,0,0,0,0,0,-2.7602,-2.7555,-2.7659,-2.7665,-2.7666,-2.7714,-2.7715,-2.7716,-2.7711,-2.771,-2.7709,-2.7707,-2.7764,-2.7767,-2.777,-2.7817,0,0,-2.7781,-2.7782,0,0,0,0,0,0,0,0,-2.7599,-2.7606,-2.7663,-2.7665,-2.7666,-2.7704,-2.7698,-2.775,-2.7711,-2.7694,-2.7708,-2.7707,-2.7746,-2.7751,-2.7764,-2.7819,-2.7822,-2.7781,-2.7783,-2.7785,-2.7786,0,0,0,0,0,0,0,-2.7596,-2.7603,-2.7681,-2.7664,-2.7666,-2.7665,-2.7671,-2.7708,-2.7726,-2.7695,-2.7695,-2.7702,-2.7746,-2.7761,-2.7765,-2.7823,-2.7781,-2.7784,-2.7786,-2.7788,-2.7918,-2.7919,0,0,0,0,0,0,-2.7591,-2.7601,-2.7679,-2.7683,-2.7629,-2.7668,-2.7674,-2.7693,-2.7726,-2.773,-2.7703,-2.7701,-2.7755,-2.7761,-2.7767,-2.7822,-2.7785,-2.7788,-2.779,-2.7916,-2.7918,-2.792,0,0,0,0,0,0,-2.7588,-2.7598,-2.7677,-2.7642,-2.7652,-2.7671,-2.7692,-2.7695,-2.7709,-2.7731,-2.7735,-2.7714,-2.7755,-2.7762,-2.7804,-2.7824,-2.7789,-2.7793,-2.7915,-2.7917,-2.7919,-2.7934,0,0,0,0,0,0,-2.7585,-2.7597,-2.7615,-2.7642,-2.7654,-2.7713,-2.7694,-2.7697,-2.7715,-2.7714,-2.7743,-2.7746,-2.7754,-2.7799,-2.7807,-2.7828,-2.7795,-2.7913,-2.7916,-2.7918,-2.7932,-2.7936,-2.794,0,0,0,0,0,-2.7582,-2.7617,-2.7615,-2.7625,-2.7676,-2.7714,-2.7721,-2.7729,-2.7717,-2.7734,-2.7749,-2.7745,-2.7821,-2.7803,-2.7813,-2.7835,-2.7912,-2.7915,-2.7918,-2.793,-2.7935,-2.794,0,0,0,0,0,0,-2.7592,-2.7621,-2.7619,-2.7665,-2.7687,-2.7713,-2.7736,-2.7735,-2.7761,-2.7759,-2.7768,-2.7775,-2.7817,-2.7831,-2.781,-2.7881,-2.7865,-2.787,-2.787,-2.7876,-2.788,-2.7875,-2.7798,0,0,0,0,0,-2.7599,-2.7628,-2.7652,-2.7689,-2.7701,-2.7716,-2.7733,-2.7738,-2.7761,-2.7771,-2.7788,-2.7811,-2.784,-2.7859,-2.7887,-2.7934,-2.794,-2.7954,-2.7959,-2.7962,-2.7966,-2.7991,-2.7997,-2.793,-2.793,-2.793,0,0,-2.7615,-2.7635,-2.7652,-2.7692,-2.771,-2.7739,-2.7724,-2.7756,-2.7778,-2.7776,-2.7816,-2.7829,-2.7856,-2.79,-2.7921,-2.7913,-2.7986,-2.7966,-2.7969,-2.7971,-2.7995,-2.8001,-2.8007,-2.7932,-2.7932,-2.7931,0,0,-2.7659,-2.7677,-2.7709,-2.7727,-2.7754,-2.7764,-2.7772,-2.7799,-2.7808,-2.7848,-2.7847,-2.7873,-2.7923,-2.7942,-2.7958,-2.8008,-2.8006,-2.8017,-2.8039,-2.8063,-2.8069,-2.8073,-2.809,-2.8096,-2.8022,-2.8022,-2.8022,0,-2.7675,-2.7718,-2.7727,-2.7758,-2.7775,-2.7775,-2.7808,-2.7825,-2.786,-2.7872,-2.7863,-2.7926,-2.7944,-2.7992,-2.8004,-2.8017,-2.8026,-2.8013,-2.8067,-2.8072,-2.8076,-2.8092,-2.8099,-2.8023,-2.8023,-2.8023,-2.8022,0,-2.7736,-2.7767,-2.779,-2.7823,-2.7843,-2.7875,-2.7889,-2.7908,-2.7911,-2.7922,-2.7963,-2.7985,-2.8017,-2.8029,-2.8032,-2.8077,-2.8072,-2.8065,-2.8048,-2.8084,-2.8099,-2.8105,-2.8024,-2.8024,-2.8024,-2.8023,0,0,-2.7787,-2.7824,-2.7832,-2.7846,-2.7876,-2.79,-2.7932,-2.7963,-2.7979,-2.8004,-2.803,-2.8073,-2.8066,-2.8085,-2.809,-2.8112,-2.8149,-2.8102,-2.8103,-2.8109,-2.8198,-2.8202,-2.8209,-2.8148,-2.8149,-2.815,-2.8196,0,-2.7832,-2.7888,-2.7897,-2.7947,-2.7974,-2.7974,-2.8002,-2.8024,-2.8035,-2.8061,-2.8074,-2.8103,-2.8093,-2.8104,-2.8125,-2.814,-2.8166,-2.8137,-2.8172,-2.8173,-2.8164,-2.8217,-2.8221,-2.8263,-2.8202,-2.8203,-2.8203,0,-2.7892,-2.7917,-2.7969,-2.7994,-2.8006,-2.8031,-2.806,-2.8084,-2.8108,-2.8115,-2.8135,-2.8138,-2.8172,-2.8155,-2.8201,-2.818,-2.8196,-2.8205,-2.8207,-2.8209,-2.8189,-2.8219,-2.8277,-2.8282,-2.8213,-2.8212,-2.8212,0,-2.7922,-2.7969,-2.8006,-2.8018,-2.8049,-2.8066,-2.808,-2.8103,-2.8121,-2.8146,-2.8158,-2.8187,-2.8203,-2.8225,-2.8236,-2.8223,-2.8281,-2.8265,-2.8287,-2.8286,-2.8298,-2.8296,-2.8357,-2.831,-2.831,-2.831,-2.831,0,-2.797,-2.8002,-2.8019,-2.8042,-2.8077,-2.8087,-2.8122,-2.8135,-2.8156,-2.8181,-2.8184,-2.8207,-2.8221,-2.8246,-2.8255,-2.8291,-2.8299,-2.8305,-2.8307,-2.8304,-2.8303,-2.8313,-2.831,-2.8312,-2.8311,-2.8311,-2.8311,0,-2.8009,-2.8022,-2.8062,-2.8088,-2.8095,-2.812,-2.8142,-2.8164,-2.8175,-2.8207,-2.8215,-2.8234,-2.8264,-2.8277,-2.8315,-2.8321,-2.8362,-2.8362,-2.8353,-2.8353,-2.8374,-2.8371,-2.8441,-2.845,-2.8399,-2.84,-2.84,0,-2.8038,-2.8062,-2.809,-2.8107,-2.8121,-2.8148,-2.8166,-2.8177,-2.8196,-2.8225,-2.8243,-2.8274,-2.8298,-2.8347,-2.8364,-2.8392,-2.8392,-2.8415,-2.8397,-2.8393,-2.8391,-2.8389,-2.8391,-2.8418,-2.8418,-2.8419,-2.8419,0,-2.8089,-2.8094,-2.8119,-2.8147,-2.8168,-2.819,-2.8212,-2.8226,-2.824,-2.8261,-2.8292,-2.8311,-2.8349,-2.8379,-2.8409,-2.8423,-2.8423,-2.8425,-2.8431,-2.8428,-2.8421,-2.8423,-2.836,-2.8423,-2.8423,-2.8422,-2.8422,-2.8422,-2.8123,-2.8144,-2.8166,-2.8194,-2.8212,-2.8232,-2.8254,-2.8268,-2.8294,-2.8325,-2.833,-2.8363,-2.8386,-2.8426,-2.8441,-2.8467,-2.8461,-2.8471,-2.8473,-2.8475,-2.8475,-2.8418,-2.8473,-2.8473,-2.8473,-2.8472,-2.8472,0,-2.8172,-2.8186,-2.8212,-2.8242,-2.8264,-2.8263,-2.8287,-2.8306,-2.8334,-2.8356,-2.838,-2.8415,-2.8443,-2.8462,-2.8492,-2.8508,-2.8509,-2.8516,-2.8514,-2.8517,-2.8479,-2.847,-2.8514,-2.8514,-2.8514,-2.8514,-2.8514,-2.8514,-2.82,-2.8235,-2.8243,-2.8287,-2.8301,-2.8332,-2.8346,-2.8365,-2.8382,-2.8421,-2.8444,-2.8457,-2.8477,-2.8508,-2.8534,-2.8539,-2.8549,-2.8555,-2.856,-2.8524,-2.852,-2.8515,-2.8507,-2.8558,-2.8558,-2.8595,-2.8595,-2.8596]},{"header":{"parameterUnit":"m.s-1","parameterCategory":1,"la1":30.2991,"la2":30.254,"lo1":-89.0895,"lo2":-89.0444,"dy":0.0017,"dx":0.0017,"nx":28,"ny":28,"refTime":"2026-01-08T03:00:00:Z","depth":0,"parameterNumber":3,"parameterNumberName":"V-component_of_WINDS"},"data":[0,0,0,0,0,0,0,0,0,0,0,0,0,0,0,0,0,0,0,0,0,0,0,0,0,0,0,0,0,0,0,0,0,0,0,0,0,0,0,0,0,0,0,0,0,0,0,0,0,0,0,0,0,0,0,0,0,0,3.6663,3.6664,0,3.6731,3.6732,3.6732,3.6739,3.6738,3.6737,3.6737,3.6805,3.6807,3.681,0,0,0,0,0,0,0,0,0,0,0,0,0,3.6541,3.6543,3.6663,3.6664,3.6664,3.6731,3.6732,3.6733,3.6739,3.6738,3.6737,3.6736,3.6804,3.6807,3.681,0,0,0,0,0,0,0,0,0,0,0,0,0,3.66,3.6543,3.6663,3.6676,3.6677,3.6731,3.6732,3.6733,3.6739,3.6738,3.6737,3.6736,3.6803,3.6807,3.681,3.6854,0,0,3.6822,3.6823,0,0,0,0,0,0,0,0,3.6596,3.6604,3.6673,3.6675,3.6677,3.6725,3.6714,3.6774,3.6739,3.6716,3.6737,3.6735,3.6779,3.6785,3.68,3.6858,3.6861,3.6822,3.6824,3.6826,3.6827,0,0,0,0,0,0,0,3.6592,3.6601,3.669,3.6674,3.6676,3.6679,3.6686,3.6725,3.6752,3.6718,3.6718,3.6726,3.678,3.6796,3.6801,3.6862,3.6822,3.6825,3.6827,3.6829,3.6964,3.6966,0,0,0,0,0,0,3.6585,3.6598,3.6687,3.6692,3.6633,3.6682,3.669,3.6711,3.6752,3.6757,3.6727,3.6726,3.679,3.6797,3.6804,3.6861,3.6826,3.6829,3.6831,3.6963,3.6965,3.6966,0,0,0,0,0,0,3.6583,3.6593,3.6685,3.6645,3.6657,3.6685,3.6709,3.6713,3.6729,3.6759,3.6764,3.6739,3.679,3.6799,3.6843,3.6864,3.6831,3.6834,3.6961,3.6963,3.6965,3.6975,0,0,0,0,0,0,3.6579,3.6592,3.6608,3.6645,3.6659,3.6722,3.671,3.6715,3.6735,3.6735,3.6771,3.6776,3.679,3.6838,3.6847,3.6868,3.6837,3.696,3.6962,3.6965,3.6973,3.6977,3.698,0,0,0,0,0,3.6575,3.6607,3.6609,3.662,3.668,3.6723,3.6731,3.6746,3.6737,3.6754,3.6775,3.6775,3.686,3.6842,3.6852,3.6875,3.6958,3.6961,3.6964,3.6971,3.6976,3.698,0,0,0,0,0,0,3.657,3.6612,3.6615,3.666,3.6688,3.6724,3.6746,3.675,3.6781,3.678,3.6797,3.6805,3.685,3.6867,3.6846,3.6923,3.6908,3.6914,3.691,3.6915,3.6919,3.6914,3.684,0,0,0,0,0,3.6575,3.6606,3.6641,3.6677,3.6692,3.6717,3.6736,3.6746,3.6776,3.6788,3.6811,3.684,3.6874,3.6895,3.6927,3.6976,3.6985,3.6997,3.7001,3.7004,3.7008,3.7039,3.7045,3.6976,3.6976,3.6976,0,0,3.6583,3.661,3.6629,3.6677,3.67,3.6734,3.6726,3.6761,3.6787,3.6793,3.6837,3.6856,3.6889,3.6937,3.6959,3.6953,3.703,3.7008,3.701,3.7013,3.7043,3.7049,3.7055,3.6978,3.6978,3.6978,0,0,3.6617,3.664,3.6674,3.6699,3.6735,3.6752,3.6761,3.6798,3.6811,3.6856,3.6862,3.6893,3.695,3.6975,3.6995,3.7044,3.7047,3.7054,3.7074,3.7104,3.711,3.7115,3.7135,3.7141,3.7059,3.7059,3.7059,0,3.6623,3.6674,3.6691,3.6728,3.675,3.6759,3.6796,3.6819,3.6863,3.6879,3.6872,3.6946,3.6969,3.7025,3.7038,3.7053,3.7065,3.705,3.7108,3.7113,3.7118,3.7137,3.7144,3.706,3.7059,3.7059,3.7059,0,3.6681,3.6717,3.6741,3.6786,3.6811,3.6847,3.6872,3.6896,3.6905,3.6923,3.6971,3.7,3.7041,3.7054,3.7062,3.7113,3.7108,3.7104,3.709,3.7125,3.7143,3.7151,3.7061,3.706,3.706,3.706,0,0,3.671,3.6769,3.6777,3.68,3.6843,3.6871,3.6909,3.695,3.6972,3.7003,3.7037,3.7087,3.7086,3.7109,3.712,3.7146,3.7187,3.7139,3.7141,3.7149,3.7248,3.7252,3.726,3.719,3.7191,3.7192,3.7246,0,3.6751,3.6819,3.6838,3.6896,3.6931,3.6943,3.6977,3.7008,3.7027,3.7061,3.7082,3.7119,3.7112,3.7127,3.7153,3.7176,3.7208,3.7173,3.7222,3.7224,3.7214,3.7269,3.7272,3.7321,3.7253,3.7254,3.7255,0,3.6805,3.6841,3.6903,3.6946,3.6961,3.6991,3.7033,3.7064,3.7101,3.7114,3.7142,3.7152,3.7195,3.7179,3.7239,3.7215,3.7237,3.7252,3.7255,3.726,3.7242,3.7278,3.7337,3.7345,3.7266,3.7266,3.7265,0,3.6823,3.6886,3.6933,3.6952,3.7002,3.7024,3.7046,3.7081,3.7107,3.7143,3.716,3.7201,3.7223,3.7255,3.7277,3.7263,3.7336,3.7322,3.7349,3.7349,3.7364,3.7363,3.7429,3.7376,3.7376,3.7376,3.7376,0,3.6866,3.6904,3.6943,3.6971,3.7016,3.7039,3.7082,3.7105,3.7138,3.7172,3.7184,3.7216,3.7243,3.728,3.7297,3.7346,3.7355,3.7368,3.7372,3.7368,3.7366,3.7382,3.738,3.7378,3.7378,3.7377,3.7377,0,3.6893,3.692,3.6972,3.7017,3.703,3.7061,3.71,3.7129,3.7151,3.7195,3.7207,3.7241,3.7285,3.731,3.7365,3.7377,3.7432,3.7434,3.742,3.7422,3.7449,3.7447,3.7529,3.7542,3.7479,3.748,3.748,0,3.6919,3.6949,3.6999,3.7024,3.7047,3.7086,3.7113,3.7138,3.7165,3.7213,3.7237,3.7282,3.732,3.739,3.742,3.7463,3.7467,3.7493,3.7473,3.7469,3.747,3.7469,3.7473,3.7496,3.7497,3.7497,3.7498,0,3.6963,3.6976,3.7014,3.7059,3.7091,3.7127,3.7162,3.7182,3.7214,3.7244,3.7291,3.732,3.7379,3.7424,3.7471,3.7494,3.7502,3.7504,3.7513,3.7509,3.75,3.7508,3.7431,3.7502,3.7501,3.7501,3.7501,3.7501,3.6991,3.702,3.7061,3.7105,3.7135,3.7169,3.7201,3.7228,3.7267,3.7318,3.733,3.738,3.742,3.7484,3.7509,3.7549,3.7545,3.7557,3.7561,3.7564,3.7566,3.7494,3.7558,3.7558,3.7557,3.7557,3.7557,0,3.7037,3.7066,3.7105,3.7157,3.7192,3.7198,3.7239,3.7268,3.7312,3.7349,3.7388,3.7443,3.7489,3.7524,3.7572,3.7597,3.7602,3.7609,3.7608,3.7614,3.7566,3.7554,3.7604,3.7604,3.7604,3.7604,3.7604,3.7604,3.7065,3.7116,3.7135,3.7203,3.7231,3.728,3.7304,3.7337,3.7367,3.7429,3.7468,3.7491,3.7529,3.758,3.7623,3.7633,3.765,3.7657,3.7667,3.7622,3.7616,3.7612,3.7601,3.766,3.766,3.7712,3.7712,3.7713]}]]